[[{"header":{"parameterUnit":"m.s-1","parameterCategory":1,"la1":30.2991,"la2":30.254,"lo1":-89.0895,"lo2":-89.0444,"dy":0.0017,"dx":0.0017,"nx":28,"ny":28,"refTime":"2025-11-26T03:00:00:Z","depth":0,"parameterNumber":2,"parameterNumberName":"U-component_of_WINDS"},"data":[0,0,0,0,0,0,0,0,0,0,0,0,0,0,0,0,0,0,0,0,0,0,0,0,0,0,0,0,0,0,0,0,0,0,0,0,0,0,0,0,0,0,0,0,0,0,0,0,0,0,0,0,0,0,0,0,0,0,0.6332,0.6332,0,0.6314,0.6314,0.6313,0.6302,0.6302,0.6301,0.6301,0.6281,0.6281,0.628,0,0,0,0,0,0,0,0,0,0,0,0,0,0.6357,0.6357,0.6332,0.6332,0.6332,0.6314,0.6314,0.6313,0.6302,0.6302,0.6301,0.6301,0.6281,0.6281,0.628,0,0,0,0,0,0,0,0,0,0,0,0,0,0.6343,0.6356,0.6332,0.6324,0.6323,0.6314,0.6314,0.6313,0.6302,0.6302,0.6301,0.6301,0.6282,0.6281,0.628,0.6278,0,0,0.6278,0.6278,0,0,0,0,0,0,0,0,0.6344,0.6342,0.6325,0.6324,0.6323,0.631,0.6315,0.6301,0.6302,0.631,0.6301,0.6301,0.6291,0.6289,0.6286,0.6277,0.6276,0.6278,0.6278,0.6277,0.6277,0,0,0,0,0,0,0,0.6345,0.6343,0.6325,0.6325,0.6324,0.6321,0.6319,0.6312,0.6301,0.6309,0.6308,0.6306,0.629,0.6287,0.6285,0.6276,0.6278,0.6277,0.6277,0.6277,0.6265,0.6265,0,0,0,0,0,0,0.6347,0.6344,0.6326,0.6324,0.6334,0.6321,0.6318,0.6314,0.6301,0.6299,0.6306,0.6306,0.6288,0.6286,0.6285,0.6282,0.6277,0.6277,0.6276,0.6265,0.6265,0.6265,0,0,0,0,0,0,0.6348,0.6346,0.6326,0.6334,0.6331,0.632,0.6316,0.6314,0.6311,0.6299,0.6297,0.6305,0.6288,0.6286,0.628,0.6281,0.6276,0.6276,0.6265,0.6265,0.6265,0.6275,0,0,0,0,0,0,0.6349,0.6346,0.6345,0.6334,0.6331,0.6322,0.6316,0.6314,0.631,0.6309,0.6297,0.6295,0.6288,0.6281,0.6279,0.628,0.6275,0.6264,0.6265,0.6265,0.6275,0.6276,0.6277,0,0,0,0,0,0.635,0.6348,0.6345,0.6343,0.6329,0.6322,0.632,0.6312,0.631,0.6309,0.6301,0.6295,0.6281,0.6281,0.6278,0.6279,0.6264,0.6265,0.6265,0.6274,0.6275,0.6277,0,0,0,0,0,0,0.6359,0.6346,0.6343,0.6338,0.6331,0.632,0.6318,0.6313,0.6307,0.6306,0.6296,0.6294,0.6289,0.6283,0.6283,0.6276,0.6272,0.6272,0.628,0.6281,0.6282,0.6283,0.6274,0,0,0,0,0,0.636,0.6356,0.6345,0.6342,0.6339,0.6329,0.6326,0.632,0.6312,0.6309,0.6302,0.6294,0.6288,0.6284,0.6278,0.6274,0.6272,0.6273,0.6274,0.6275,0.6275,0.6273,0.6274,0.6266,0.6266,0.6266,0,0,0.6363,0.6356,0.6353,0.6343,0.6337,0.6333,0.6327,0.6322,0.6318,0.6308,0.6303,0.6297,0.6288,0.6284,0.6281,0.6279,0.6277,0.6275,0.6276,0.6275,0.6273,0.6274,0.6275,0.6266,0.6266,0.6266,0,0,0.6366,0.636,0.6357,0.6351,0.6343,0.6337,0.6336,0.6326,0.6322,0.6317,0.631,0.6305,0.6295,0.6289,0.6285,0.6288,0.6282,0.6286,0.629,0.6289,0.6289,0.629,0.6291,0.6292,0.6286,0.6286,0.6286,0,0.637,0.6363,0.6356,0.6351,0.6347,0.634,0.6337,0.6332,0.6321,0.6319,0.6317,0.6304,0.6298,0.6292,0.6293,0.629,0.6289,0.6287,0.629,0.629,0.6291,0.6292,0.6292,0.6286,0.6286,0.6286,0.6286,0,0.6369,0.6364,0.6363,0.6354,0.635,0.6347,0.6339,0.6335,0.6331,0.6325,0.632,0.6312,0.6305,0.6303,0.6298,0.6297,0.6296,0.6292,0.6287,0.6292,0.6293,0.6293,0.6287,0.6287,0.6287,0.6287,0,0,0.6376,0.6364,0.6364,0.636,0.6351,0.6347,0.6344,0.6337,0.6335,0.6328,0.6325,0.6318,0.6314,0.631,0.6304,0.6303,0.6306,0.6299,0.6299,0.6301,0.6305,0.6308,0.6308,0.6303,0.6303,0.6303,0.6306,0,0.6377,0.6371,0.6364,0.636,0.6356,0.6349,0.6346,0.634,0.6335,0.6331,0.6326,0.632,0.6316,0.6314,0.6312,0.6306,0.6307,0.6306,0.6299,0.6299,0.6301,0.6309,0.6311,0.6314,0.6306,0.6306,0.6306,0,0.6378,0.6373,0.6368,0.6361,0.6359,0.6356,0.635,0.6346,0.634,0.6336,0.6332,0.6326,0.6323,0.6319,0.6314,0.6314,0.6311,0.6308,0.6308,0.6306,0.6303,0.6307,0.6315,0.6316,0.6306,0.6306,0.6306,0,0.6383,0.6375,0.6372,0.6369,0.636,0.6358,0.6355,0.6348,0.6345,0.634,0.6338,0.6332,0.6329,0.6325,0.6318,0.6316,0.6314,0.6309,0.6311,0.6311,0.631,0.631,0.6317,0.6308,0.6308,0.6308,0.6308,0,0.6385,0.6383,0.6374,0.6372,0.6369,0.6363,0.636,0.6356,0.635,0.6347,0.6341,0.6338,0.633,0.6326,0.6321,0.6318,0.6316,0.6313,0.6312,0.6314,0.6314,0.6311,0.6311,0.6309,0.6309,0.6309,0.6309,0,0.6391,0.6385,0.6381,0.6373,0.6371,0.637,0.6363,0.6361,0.6356,0.6352,0.6351,0.6344,0.6339,0.6332,0.6325,0.6322,0.632,0.6317,0.6322,0.6321,0.6323,0.6323,0.6328,0.6328,0.632,0.632,0.632,0,0.6392,0.639,0.6383,0.6381,0.6377,0.6374,0.6371,0.6364,0.6362,0.6355,0.6354,0.6349,0.6345,0.6338,0.6332,0.6327,0.6324,0.6327,0.6323,0.6326,0.6324,0.6325,0.6325,0.6327,0.6327,0.6327,0.6328,0,0.6395,0.6393,0.6389,0.6385,0.6382,0.6378,0.6373,0.6372,0.6365,0.6362,0.6358,0.6355,0.6349,0.6344,0.6338,0.6334,0.633,0.6329,0.6329,0.633,0.6333,0.6332,0.6324,0.6328,0.6328,0.6328,0.6328,0.6328,0.6399,0.6397,0.6392,0.6388,0.6385,0.6381,0.6379,0.6375,0.6371,0.6366,0.6363,0.6359,0.6353,0.6346,0.6342,0.6339,0.6337,0.6337,0.6337,0.6337,0.6338,0.6334,0.6338,0.6338,0.6338,0.6338,0.6338,0,0.6402,0.6399,0.6395,0.639,0.6387,0.6384,0.638,0.6378,0.6375,0.637,0.6367,0.6362,0.6358,0.6352,0.6348,0.6347,0.6344,0.6346,0.6345,0.6345,0.634,0.634,0.6348,0.6348,0.6348,0.6348,0.6348,0.6348,0.6403,0.64,0.6398,0.6393,0.639,0.6387,0.6384,0.6381,0.6378,0.6374,0.637,0.6367,0.6362,0.6358,0.6354,0.6352,0.6351,0.6353,0.6351,0.6346,0.6345,0.6344,0.6344,0.6353,0.6353,0.6356,0.6356,0.6356]},{"header":{"parameterUnit":"m.s-1","parameterCategory":1,"la1":30.2991,"la2":30.254,"lo1":-89.0895,"lo2":-89.0444,"dy":0.0017,"dx":0.0017,"nx":28,"ny":28,"refTime":"2025-11-26T03:00:00:Z","depth":0,"parameterNumber":3,"parameterNumberName":"V-component_of_WINDS"},"data":[0,0,0,0,0,0,0,0,0,0,0,0,0,0,0,0,0,0,0,0,0,0,0,0,0,0,0,0,0,0,0,0,0,0,0,0,0,0,0,0,0,0,0,0,0,0,0,0,0,0,0,0,0,0,0,0,0,0,-5.5183,-5.5184,0,-5.5256,-5.5257,-5.5258,-5.5218,-5.5216,-5.5214,-5.5212,-5.5281,-5.5285,-5.5288,0,0,0,0,0,0,0,0,0,0,0,0,0,-5.5004,-5.5007,-5.5183,-5.5184,-5.5185,-5.5256,-5.5257,-5.5258,-5.5218,-5.5215,-5.5213,-5.5211,-5.528,-5.5284,-5.5289,0,0,0,0,0,0,0,0,0,0,0,0,0,-5.508,-5.5008,-5.5183,-5.5173,-5.5173,-5.5256,-5.5257,-5.5258,-5.5218,-5.5215,-5.5212,-5.521,-5.5278,-5.5284,-5.5289,-5.5383,0,0,-5.5306,-5.5309,0,0,0,0,0,0,0,0,-5.5075,-5.5086,-5.5174,-5.5174,-5.5174,-5.5225,-5.5219,-5.53,-5.5219,-5.5201,-5.5212,-5.5208,-5.5264,-5.5271,-5.5291,-5.5386,-5.5389,-5.5307,-5.531,-5.5312,-5.5314,0,0,0,0,0,0,0,-5.507,-5.5083,-5.5212,-5.5175,-5.5175,-5.5164,-5.5172,-5.5234,-5.5248,-5.5202,-5.52,-5.5209,-5.5264,-5.5286,-5.5292,-5.539,-5.5306,-5.5311,-5.5315,-5.5317,-5.5569,-5.5572,0,0,0,0,0,0,-5.5066,-5.5079,-5.5209,-5.5214,-5.5117,-5.517,-5.5178,-5.5211,-5.5248,-5.525,-5.5212,-5.5207,-5.5278,-5.5286,-5.5295,-5.5409,-5.5312,-5.5318,-5.5321,-5.5565,-5.5569,-5.5573,0,0,0,0,0,0,-5.5062,-5.5078,-5.5206,-5.5146,-5.5161,-5.5176,-5.5214,-5.5215,-5.5236,-5.5255,-5.5256,-5.5232,-5.5276,-5.5287,-5.5362,-5.541,-5.532,-5.5325,-5.5561,-5.5567,-5.5571,-5.5636,0,0,0,0,0,0,-5.5057,-5.5077,-5.5114,-5.5147,-5.5165,-5.5274,-5.5217,-5.5218,-5.5247,-5.5241,-5.5274,-5.5277,-5.5274,-5.5354,-5.5368,-5.5416,-5.5329,-5.5557,-5.5564,-5.557,-5.563,-5.5643,-5.5654,0,0,0,0,0,-5.5051,-5.5127,-5.5116,-5.5132,-5.5211,-5.5277,-5.5287,-5.5285,-5.5251,-5.5288,-5.53,-5.5276,-5.5403,-5.5362,-5.5377,-5.5428,-5.5554,-5.5562,-5.5569,-5.5625,-5.5641,-5.5654,0,0,0,0,0,0,-5.5097,-5.5132,-5.5119,-5.5209,-5.5241,-5.527,-5.5316,-5.5301,-5.5342,-5.5335,-5.5328,-5.5336,-5.5415,-5.5429,-5.5383,-5.5522,-5.5473,-5.5484,-5.551,-5.5525,-5.5537,-5.5532,-5.5334,0,0,0,0,0,-5.5118,-5.5171,-5.5197,-5.5273,-5.5291,-5.5301,-5.533,-5.5325,-5.5357,-5.537,-5.5387,-5.5418,-5.5465,-5.5496,-5.554,-5.5632,-5.5639,-5.5674,-5.5686,-5.5696,-5.5706,-5.5757,-5.5774,-5.5598,-5.5598,-5.5598,0,0,-5.5161,-5.5186,-5.5219,-5.5284,-5.5308,-5.5361,-5.5312,-5.537,-5.541,-5.5378,-5.5452,-5.5466,-5.5499,-5.5584,-5.5622,-5.5598,-5.5756,-5.5706,-5.5714,-5.5718,-5.5767,-5.5783,-5.5798,-5.5603,-5.5602,-5.5601,0,0,-5.5267,-5.5291,-5.5359,-5.5385,-5.5424,-5.543,-5.5447,-5.548,-5.5489,-5.5563,-5.554,-5.5586,-5.5667,-5.5693,-5.5716,-5.5835,-5.5814,-5.5849,-5.5912,-5.5962,-5.5976,-5.5988,-5.6032,-5.6047,-5.5858,-5.5858,-5.5859,0,-5.5315,-5.5396,-5.5395,-5.5456,-5.5485,-5.5461,-5.5529,-5.5554,-5.5604,-5.5624,-5.5597,-5.57,-5.572,-5.5812,-5.5841,-5.586,-5.5879,-5.5845,-5.5975,-5.5987,-5.5998,-5.6039,-5.6056,-5.5863,-5.5862,-5.5862,-5.5861,0,-5.5454,-5.5511,-5.5561,-5.5613,-5.5648,-5.5712,-5.5719,-5.5754,-5.5747,-5.5756,-5.5833,-5.5857,-5.5907,-5.5928,-5.592,-5.6019,-5.6003,-5.5975,-5.5926,-5.6019,-5.6058,-5.6074,-5.5868,-5.5867,-5.5866,-5.5865,0,0,-5.559,-5.5643,-5.5661,-5.5685,-5.5727,-5.5771,-5.5833,-5.5885,-5.5915,-5.5951,-5.6003,-5.6074,-5.6049,-5.6076,-5.6071,-5.6115,-5.6209,-5.6082,-5.6083,-5.6106,-5.6321,-5.6342,-5.6361,-5.6196,-5.6199,-5.6202,-5.6319,0,-5.5699,-5.5813,-5.5814,-5.5917,-5.5971,-5.595,-5.6005,-5.6036,-5.6047,-5.6092,-5.6103,-5.6154,-5.6117,-5.6134,-5.6176,-5.6189,-5.6253,-5.618,-5.6245,-5.6247,-5.6238,-5.6381,-5.6403,-5.6512,-5.6333,-5.6336,-5.6338,0,-5.5842,-5.5886,-5.5996,-5.6033,-5.6055,-5.6105,-5.6153,-5.6197,-5.6232,-5.6236,-5.6268,-5.6257,-5.6321,-5.627,-5.6357,-5.6309,-5.6335,-5.6345,-5.6349,-5.6356,-5.6299,-5.6392,-5.6546,-5.6563,-5.6361,-5.636,-5.6358,0,-5.5932,-5.6018,-5.6096,-5.6117,-5.6161,-5.6197,-5.6216,-5.6249,-5.628,-5.6321,-5.6341,-5.6389,-5.6414,-5.6451,-5.6453,-5.6415,-5.6542,-5.649,-5.6547,-5.6547,-5.6575,-5.6573,-5.6737,-5.6591,-5.659,-5.659,-5.659,0,-5.6055,-5.6123,-5.6137,-5.6185,-5.6261,-5.6261,-5.6336,-5.6352,-5.6381,-5.6431,-5.6414,-5.6461,-5.6461,-5.6508,-5.6509,-5.6583,-5.6594,-5.6599,-5.6599,-5.6601,-5.6601,-5.6619,-5.6611,-5.6594,-5.6593,-5.6593,-5.6592,0,-5.6168,-5.618,-5.6263,-5.6299,-5.631,-5.6365,-5.6395,-5.644,-5.645,-5.6513,-5.6528,-5.6543,-5.6599,-5.6604,-5.6667,-5.6668,-5.6757,-5.6748,-5.6746,-5.6745,-5.6802,-5.6797,-5.6984,-5.7009,-5.6845,-5.6847,-5.6848,0,-5.6246,-5.6298,-5.6342,-5.6375,-5.6398,-5.6451,-5.6484,-5.6487,-5.6521,-5.6567,-5.6606,-5.6661,-5.6704,-5.6793,-5.6808,-5.6857,-5.685,-5.6912,-5.6856,-5.6858,-5.6852,-5.6849,-5.6855,-5.6922,-5.6924,-5.6926,-5.6927,0,-5.6384,-5.6388,-5.6437,-5.649,-5.653,-5.6571,-5.6609,-5.6637,-5.6644,-5.6683,-5.6741,-5.6775,-5.6842,-5.6895,-5.6944,-5.6962,-5.6946,-5.6944,-5.696,-5.6964,-5.6961,-5.6965,-5.6777,-5.694,-5.6939,-5.6938,-5.6937,-5.6936,-5.6482,-5.6529,-5.6568,-5.6624,-5.6653,-5.669,-5.6735,-5.6752,-5.6801,-5.6857,-5.6855,-5.6919,-5.6953,-5.7017,-5.7039,-5.7089,-5.7068,-5.709,-5.7096,-5.7102,-5.7109,-5.6953,-5.7097,-5.7097,-5.7096,-5.7096,-5.7096,0,-5.662,-5.6645,-5.6697,-5.6752,-5.6797,-5.678,-5.6822,-5.6859,-5.6917,-5.6951,-5.6996,-5.7063,-5.7116,-5.7137,-5.7188,-5.7224,-5.7218,-5.7237,-5.7235,-5.724,-5.7124,-5.7106,-5.7241,-5.7241,-5.7241,-5.7241,-5.7241,-5.7241,-5.6697,-5.6776,-5.6785,-5.6879,-5.6902,-5.6967,-5.6993,-5.7026,-5.7054,-5.7131,-5.7176,-5.719,-5.722,-5.7273,-5.7321,-5.7326,-5.7346,-5.7369,-5.737,-5.7262,-5.7247,-5.7233,-5.7216,-5.7373,-5.7373,-5.7482,-5.7483,-5.7484]}]]